When you browse on this site, cookies collect data to enhance your experience and personalize the content and advertising you see.
Visit our Privacy Policy to learn more. By continuing to use the site, you agree to this use of cookies and data.
  • In Romania
  • List of Countries
  • For 7 days
  • Water Temperature
  • Satellite Maps
  • Weather Map
  • Weather Widgets
  • user-avatar
    Login

    Hourly Weather Wellington

    Today, 19 July, Friday

    Time Temperature Precipitation Wind Pressure Humidity
    00:00 +10°C° 0 mm 8 mps 745 mmHg 87%
    01:00 +9°C° 0 mm 8 mps 745 mmHg 87%
    02:00 +9°C° 0 mm 8 mps 745 mmHg 88%
    03:00 +9°C° 0 mm 7 mps 745 mmHg 89%
    04:00 +9°C° 0 mm 7 mps 744 mmHg 89%
    05:00 +8°C° 0 mm 7 mps 744 mmHg 90%
    06:00 +9°C° 0 mm 6 mps 743 mmHg 84%
    07:00 +9°C° 0 mm 6 mps 743 mmHg 81%
    08:00 +9°C° 0 mm 6 mps 743 mmHg 78%
    09:00 +10°C° 0 mm 5 mps 743 mmHg 74%
    10:00 +12°C° 0 mm 5 mps 743 mmHg 71%
    11:00 +13°C° 0 mm 4 mps 742 mmHg 68%
    12:00 +14°C° 0 mm 5 mps 742 mmHg 64%
    13:00 +14°C° 0.1 mm 4 mps 741 mmHg 66%
    14:00 +13°C° 0.1 mm 3 mps 740 mmHg 69%
    15:00 +14°C° 0.1 mm 2 mps 740 mmHg 71%
    16:00 +12°C° 0.5 mm 3 mps 740 mmHg 78%
    17:00 +12°C° 0.5 mm 3 mps 739 mmHg 84%
    18:00 +11°C° 0.5 mm 4 mps 739 mmHg 91%
    19:00 +11°C° 0.7 mm 3 mps 739 mmHg 92%
    20:00 +11°C° 0.7 mm 3 mps 739 mmHg 93%
    21:00 +11°C° 0.7 mm 3 mps 739 mmHg 94%
    22:00 +11°C° 0.2 mm 4 mps 739 mmHg 94%
    23:00 +11°C° 0.2 mm 4 mps 739 mmHg 94%

    Tomorrow, 20 July, Saturday

    Time Temperature Precipitation Wind Pressure Humidity
    00:00 +10°C° 0.2 mm 5 mps 739 mmHg 93%
    01:00 +10°C° 0.2 mm 5 mps 739 mmHg 93%
    02:00 +11°C° 0.2 mm 4 mps 739 mmHg 93%
    03:00 +11°C° 0.2 mm 4 mps 740 mmHg 92%
    04:00 +11°C° 0.2 mm 4 mps 740 mmHg 93%
    05:00 +9°C° 0.2 mm 5 mps 740 mmHg 94%
    06:00 +9°C° 0.2 mm 5 mps 739 mmHg 95%
    07:00 +9°C° 0.5 mm 5 mps 740 mmHg 95%
    08:00 +9°C° 0.5 mm 6 mps 740 mmHg 96%
    09:00 +9°C° 0.5 mm 6 mps 741 mmHg 96%
    10:00 +9°C° 0.4 mm 6 mps 740 mmHg 95%
    11:00 +9°C° 0.4 mm 6 mps 740 mmHg 95%
    12:00 +9°C° 0.4 mm 6 mps 740 mmHg 94%
    13:00 +9°C° 0.2 mm 5 mps 740 mmHg 93%
    14:00 +8°C° 0.2 mm 5 mps 740 mmHg 92%
    15:00 +8°C° 0.2 mm 4 mps 740 mmHg 91%
    16:00 +8°C° 0 mm 4 mps 740 mmHg 90%
    17:00 +9°C° 0 mm 3 mps 740 mmHg 90%
    18:00 +9°C° 0 mm 2 mps 740 mmHg 90%
    19:00 +9°C° 0.1 mm 2 mps 740 mmHg 91%
    20:00 +9°C° 0.1 mm 2 mps 741 mmHg 91%
    21:00 +10°C° 0.1 mm 1 mps 741 mmHg 92%
    22:00 +9°C° 0 mm 2 mps 741 mmHg 92%
    23:00 +9°C° 0 mm 3 mps 741 mmHg 92%

    Day after tomorrow, 21 July, Sunday

    Time Temperature Precipitation Wind Pressure Humidity
    00:00 +8°C° 0 mm 4 mps 741 mmHg 92%
    01:00 +8°C° 0 mm 4 mps 741 mmHg 92%
    02:00 +8°C° 0 mm 5 mps 741 mmHg 92%
    03:00 +8°C° 0 mm 5 mps 741 mmHg 92%
    04:00 +8°C° 0 mm 5 mps 742 mmHg 91%
    05:00 +9°C° 0 mm 6 mps 742 mmHg 90%
    06:00 +9°C° 0 mm 6 mps 742 mmHg 89%
    07:00 +9°C° 0.1 mm 6 mps 743 mmHg 87%
    08:00 +9°C° 0.1 mm 7 mps 744 mmHg 85%
    09:00 +9°C° 0.1 mm 7 mps 744 mmHg 83%
    10:00 +10°C° 0 mm 7 mps 745 mmHg 80%
    11:00 +10°C° 0 mm 7 mps 745 mmHg 77%
    12:00 +11°C° 0 mm 6 mps 746 mmHg 74%
    13:00 +11°C° 0 mm 6 mps 746 mmHg 72%
    14:00 +11°C° 0 mm 6 mps 746 mmHg 70%
    15:00 +12°C° 0 mm 5 mps 747 mmHg 68%
    16:00 +10°C° 0 mm 5 mps 747 mmHg 71%
    17:00 +10°C° 0 mm 4 mps 748 mmHg 74%
    18:00 +9°C° 0 mm 3 mps 748 mmHg 77%
    19:00 +8°C° 0 mm 3 mps 749 mmHg 77%
    20:00 +8°C° 0 mm 2 mps 750 mmHg 77%
    21:00 +8°C° 0 mm 2 mps 750 mmHg 77%
    22:00 +8°C° 0 mm 1 mps 751 mmHg 78%
    23:00 +8°C° 0 mm 1 mps 751 mmHg 80%

    22 July, Monday

    Time Temperature Precipitation Wind Pressure Humidity
    00:00 +8°C° 0 mm 1 mps 751 mmHg 81%
    01:00 +8°C° 0 mm 1 mps 751 mmHg 82%
    02:00 +8°C° 0 mm 1 mps 751 mmHg 82%
    03:00 +7°C° 0 mm 2 mps 752 mmHg 82%
    04:00 +7°C° 0 mm 2 mps 752 mmHg 83%
    05:00 +8°C° 0 mm 1 mps 752 mmHg 85%
    06:00 +8°C° 0 mm 1 mps 752 mmHg 86%
    07:00 +8°C° 0 mm 1 mps 752 mmHg 84%
    08:00 +9°C° 0 mm 1 mps 753 mmHg 82%
    09:00 +9°C° 0 mm 1 mps 753 mmHg 80%
    10:00 +11°C° 0 mm 1 mps 753 mmHg 75%
    11:00 +12°C° 0 mm 1 mps 753 mmHg 71%
    12:00 +13°C° 0 mm 1 mps 753 mmHg 66%
    13:00 +13°C° 0 mm 1 mps 753 mmHg 67%
    14:00 +13°C° 0 mm 1 mps 752 mmHg 67%
    15:00 +13°C° 0 mm 1 mps 752 mmHg 68%
    16:00 +12°C° 0 mm 1 mps 752 mmHg 74%
    17:00 +11°C° 0 mm 1 mps 752 mmHg 80%
    18:00 +9°C° 0 mm 1 mps 753 mmHg 86%
    19:00 +9°C° 0 mm 1 mps 753 mmHg 87%
    20:00 +9°C° 0 mm 1 mps 753 mmHg 87%
    21:00 +8°C° 0 mm 2 mps 753 mmHg 88%
    22:00 +8°C° 0 mm 2 mps 754 mmHg 88%
    23:00 +9°C° 0 mm 1 mps 754 mmHg 89%

    23 July, Tuesday

    Time Temperature Precipitation Wind Pressure Humidity
    00:00 +8°C° 0 mm 1 mps 754 mmHg 89%
    01:00 +8°C° 0 mm 1 mps 754 mmHg 89%
    02:00 +8°C° 0 mm 1 mps 754 mmHg 88%
    03:00 +8°C° 0 mm 1 mps 754 mmHg 88%
    04:00 +8°C° 0 mm 1 mps 754 mmHg 88%
    05:00 +8°C° 0 mm 1 mps 754 mmHg 89%
    06:00 +8°C° 0 mm 1 mps 754 mmHg 89%
    07:00 +8°C° 0 mm 1 mps 754 mmHg 88%
    08:00 +8°C° 0 mm 2 mps 755 mmHg 87%
    09:00 +8°C° 0 mm 2 mps 755 mmHg 87%
    10:00 +9°C° 0 mm 3 mps 755 mmHg 82%
    11:00 +11°C° 0 mm 3 mps 755 mmHg 77%
    12:00 +12°C° 0 mm 4 mps 755 mmHg 72%
    13:00 +12°C° 0 mm 4 mps 754 mmHg 74%
    14:00 +12°C° 0 mm 5 mps 754 mmHg 76%
    15:00 +10°C° 0 mm 6 mps 754 mmHg 78%
    16:00 +10°C° 0 mm 6 mps 754 mmHg 82%
    17:00 +9°C° 0 mm 6 mps 754 mmHg 86%
    18:00 +8°C° 0 mm 6 mps 754 mmHg 91%
    19:00 +8°C° 0 mm 6 mps 754 mmHg 91%
    20:00 +8°C° 0 mm 6 mps 755 mmHg 92%
    21:00 +8°C° 0 mm 6 mps 755 mmHg 92%
    22:00 +8°C° 0 mm 6 mps 755 mmHg 93%
    23:00 +8°C° 0 mm 6 mps 755 mmHg 93%

    24 July, Wednesday

    Time Temperature Precipitation Wind Pressure Humidity
    00:00 +8°C° 0 mm 6 mps 755 mmHg 93%
    01:00 +8°C° 0.1 mm 6 mps 755 mmHg 93%
    02:00 +8°C° 0.1 mm 7 mps 755 mmHg 93%
    03:00 +9°C° 0.1 mm 7 mps 755 mmHg 93%
    04:00 +9°C° 0.1 mm 7 mps 754 mmHg 93%
    05:00 +9°C° 0.1 mm 7 mps 754 mmHg 94%
    06:00 +8°C° 0.1 mm 7 mps 754 mmHg 95%
    07:00 +8°C° 0.3 mm 7 mps 755 mmHg 95%
    08:00 +8°C° 0.3 mm 6 mps 755 mmHg 94%
    09:00 +8°C° 0.3 mm 6 mps 755 mmHg 94%
    10:00 +9°C° 0.6 mm 6 mps 755 mmHg 94%
    11:00 +9°C° 0.6 mm 6 mps 755 mmHg 93%
    12:00 +9°C° 0.6 mm 5 mps 755 mmHg 92%
    13:00 +9°C° 0.3 mm 5 mps 754 mmHg 92%
    14:00 +10°C° 0.3 mm 4 mps 754 mmHg 92%
    15:00 +10°C° 0.3 mm 4 mps 754 mmHg 92%
    16:00 +10°C° 0.1 mm 4 mps 754 mmHg 93%
    17:00 +10°C° 0.1 mm 3 mps 754 mmHg 93%
    18:00 +9°C° 0.1 mm 3 mps 754 mmHg 94%
    19:00 +9°C° 0 mm 2 mps 754 mmHg 93%
    20:00 +9°C° 0 mm 2 mps 754 mmHg 93%
    21:00 +8°C° 0 mm 2 mps 754 mmHg 93%
    22:00 +8°C° 0 mm 2 mps 754 mmHg 92%
    23:00 +8°C° 0 mm 2 mps 754 mmHg 91%
    Show more